sat.trackr.live / text

‹ back to catalog

STARLINK-31912

NORAD 59656 · 2024-084C

PAYLOAD ACTIVE UNKNOWN

§ Identity

Operator
Country
US
Launch date
2024-05-06
Launch site
AFETR
Launch vehicle
Mass (kg)
RCS (m²)

Purposes: comms

External: N2YO · Heavens-Above · Gunter

§ Orbital elements

Epoch: 2026-09-21T14:32:46.141440Z

Period
94.27 min
Inclination
43.0027°
Eccentricity
0.0001220
Mean motion
15.27580363 rev/d
Perigee alt
482.2 km
Apogee alt
483.9 km
Semi-major
6,861.2 km
B*
2.1098e-5
RAAN
15.5740°
Arg perigee
272.9048°
Mean anomaly
87.1664°
Rev number
13,433

§ Raw data

STARLINK-319121 59656U 24084C   26264.60608960  .00000319  00000+0  21098-4 0  99902 59656  43.0027  15.5740 0001220 272.9048  87.1664 15.27580363134334

JSON: /api/v1/satellites/59656 · /tle

For live sub-satellite position, see the globe view (requires WebGL).

§ Visibility from observer

Set your observer location to see the next 7 days of passes ≥ 10°. The values pass through the URL so the page stays shareable.

No JS? Fill the form by hand. The geolocation button needs JavaScript.